TimeCDT,TemperatureF,Dew PointF,Humidity,Sea Level PressureIn,VisibilityMPH,Wind Direction,Wind SpeedMPH,Gust SpeedMPH,PrecipitationIn,Events,Conditions,WindDirDegrees,DateUTC
12:53 AM,72.0,66.0,81,29.97,10.0,East,13.8,-,N/A,,Overcast,90,2013-08-03 05:53:00
1:30 AM,71.6,64.4,78,30.06,10.0,ESE,11.5,-,N/A,,Overcast,110,2013-08-03 06:30:00
1:53 AM,73.9,64.9,73,29.98,10.0,East,9.2,-,N/A,,Overcast,100,2013-08-03 06:53:00
2:30 AM,69.8,64.4,83,30.05,10.0,ENE,6.9,-,N/A,,Scattered Clouds,70,2013-08-03 07:30:00
2:53 AM,68.0,64.9,90,29.97,10.0,NE,5.8,-,N/A,,Clear,40,2013-08-03 07:53:00
3:53 AM,66.9,64.9,93,29.99,6.0,NE,6.9,-,N/A,,Clear,50,2013-08-03 08:53:00
4:32 AM,66.2,64.4,94,30.06,5.0,NE,11.5,-,N/A,,Scattered Clouds,40,2013-08-03 09:32:00
4:40 AM,66.2,64.4,94,30.06,5.0,NE,10.4,-,N/A,,Mostly Cloudy,50,2013-08-03 09:40:00
4:53 AM,66.9,64.9,93,29.99,5.0,ENE,12.7,-,N/A,,Overcast,60,2013-08-03 09:53:00
5:20 AM,66.2,64.4,94,30.07,4.0,East,12.7,-,N/A,,Overcast,90,2013-08-03 10:20:00
5:53 AM,66.9,64.9,93,30.00,4.0,East,12.7,-,N/A,,Overcast,80,2013-08-03 10:53:00
6:53 AM,68.0,64.9,90,30.01,5.0,East,12.7,-,N/A,,Overcast,80,2013-08-03 11:53:00
7:53 AM,66.9,64.9,93,30.04,3.0,East,16.1,-,N/A,,Overcast,80,2013-08-03 12:53:00
8:53 AM,68.0,64.0,87,30.04,4.0,East,11.5,-,N/A,,Overcast,90,2013-08-03 13:53:00
9:11 AM,68.0,62.6,83,30.10,9.0,East,8.1,-,N/A,,Scattered Clouds,90,2013-08-03 14:11:00
9:37 AM,69.8,62.6,78,30.11,9.0,East,10.4,-,N/A,,Mostly Cloudy,80,2013-08-03 14:37:00
9:53 AM,70.0,63.0,78,30.05,10.0,East,12.7,-,N/A,,Overcast,80,2013-08-03 14:53:00
10:32 AM,71.6,62.6,73,30.12,10.0,ENE,13.8,-,N/A,,Overcast,70,2013-08-03 15:32:00
10:53 AM,71.1,63.0,75,30.07,10.0,East,13.8,-,N/A,,Overcast,80,2013-08-03 15:53:00
11:53 AM,71.1,63.0,75,30.10,10.0,ENE,16.1,-,N/A,,Overcast,70,2013-08-03 16:53:00
12:29 PM,69.8,62.6,78,30.17,7.0,ENE,19.6,-,N/A,,Overcast,60,2013-08-03 17:29:00
12:53 PM,69.1,62.1,78,30.12,7.0,NE,19.6,26.5,N/A,,Overcast,50,2013-08-03 17:53:00
1:16 PM,69.8,62.6,78,30.19,7.0,ENE,20.7,26.5,N/A,,Overcast,60,2013-08-03 18:16:00
1:43 PM,68.0,62.6,83,30.20,6.0,NE,20.7,27.6,N/A,,Haze,50,2013-08-03 18:43:00
1:53 PM,69.1,62.1,78,30.14,7.0,NE,23.0,28.8,N/A,,Overcast,50,2013-08-03 18:53:00
2:29 PM,69.8,60.8,73,30.20,9.0,ENE,19.6,27.6,N/A,,Overcast,70,2013-08-03 19:29:00
2:53 PM,72.0,61.0,68,30.14,10.0,ENE,21.9,31.1,N/A,,Overcast,70,2013-08-03 19:53:00
3:53 PM,75.9,61.0,60,30.09,10.0,East,23.0,29.9,N/A,,Overcast,90,2013-08-03 20:53:00
4:02 PM,75.2,60.8,61,30.14,10.0,East,20.7,29.9,N/A,,Overcast,90,2013-08-03 21:02:00
4:53 PM,75.9,61.0,60,30.08,10.0,ESE,20.7,26.5,N/A,,Overcast,110,2013-08-03 21:53:00
5:53 PM,73.9,61.0,64,30.07,10.0,ESE,13.8,25.3,N/A,,Overcast,110,2013-08-03 22:53:00
6:53 PM,73.9,61.0,64,30.09,10.0,ESE,11.5,-,N/A,,Overcast,120,2013-08-03 23:53:00
7:22 PM,73.4,60.8,65,30.14,10.0,ESE,10.4,-,N/A,,Mostly Cloudy,120,2013-08-04 00:22:00
7:33 PM,73.4,62.6,69,30.13,10.0,SSE,13.8,-,N/A,,Scattered Clouds,150,2013-08-04 00:33:00
7:53 PM,73.0,62.1,68,30.09,10.0,SE,6.9,-,N/A,,Scattered Clouds,140,2013-08-04 00:53:00
8:53 PM,72.0,63.0,73,30.10,10.0,SE,6.9,-,N/A,,Scattered Clouds,140,2013-08-04 01:53:00
9:08 PM,71.6,62.6,73,30.17,10.0,ENE,3.5,-,N/A,,Mostly Cloudy,70,2013-08-04 02:08:00
9:53 PM,72.0,63.0,73,30.14,10.0,ENE,3.5,-,N/A,,Overcast,60,2013-08-04 02:53:00
10:53 PM,72.0,63.0,73,30.14,10.0,NE,3.5,-,N/A,,Overcast,50,2013-08-04 03:53:00
11:53 PM,71.1,63.0,75,30.13,10.0,East,8.1,-,N/A,,Overcast,80,2013-08-04 04:53:00